Location: Unspecified
(0.0000°N, 0.0000°E)
Time: 14:19:08
(UTC+00:00)

FALCON 9 R/B - Pass Details

Date: 05 November 2020
Orbit: 485 x 62261 km, 25.4° (Epoch: 27 November)

Event Time Altitude Azimuth Distance (km) Brightness Sun altitude
Exits shadow 04:05:19 24° 299° (WNW) 11,320 ? -23.6°
Maximum altitude 05:48:29 52° 324° (NW) 31,625 ? 1.2°
Drops below altitude 10° 11:26:25 10° 292° (WNW) 65,098 ? 73.5°
Sets 12:22:05 0° 290° (WNW) 67,647 ? 71.5°
